FALCON 9 DEB (47183 NORAD) Tracking and Keplerian Element Data

This shows tracking and keplerian element data for the satellite.

Feedback or suggestion? Click here.




ElementValue
Catalog47183
NameFALCON 9 DEB
Epoch Orbit398
Epoch Day351.83641416
Epoch Year2020
RAAN240.9679
Inclination53.0313
Eccentricity0.0018368
Argument of Perigee136.7983
Mean Anonmoly223.4508
Mean Motion16.40198609
Decay Rate0.06310742
L11 47183U 20088BP 20351.83641416 .06310742 12201-4 36646-3 0 9996
L22 47183 53.0313 240.9679 0018368 136.7983 223.4508 16.40198609 3988

Live tracking and technical data element details for FALCON 9 DEB (NORAD 47183). FALCON 9 DEB can be tracked NOW for your location showing map with azimuth and elevation plus other details from your city location.

Track the satellite on the map from your city or location and see movement details for azimuth, elevation, latitude, longitude, range, height, and movement on the map or in text.







IsCatalogInMostPopularTable: catalog: 47183, numindb: 26
Update: records affected: 1



GetName: 47183 FALCON 9 DEB

Hit Count: updated at: Sat, 23 Jan 2021 17:43:54 GMT